Theta_e
364 364 362 362 363 364 364 363 363 362 362 359 357 358 356 358 358 356 355 353 352 350 349 350 348 347 346 347 347 347 345 345 344 344 345 344 343 342 341 341 342 341
364 364 364 364 364 365 367 366 366 364 363 362 360 359 359 359 357 356 355 352 351 350 351 349 347 347 346 345 346 345 344 344 344 344 344 344 344 343 341 342 341 342
365 364 362 363 363 364 364 366 366 365 362 362 362 361 359 358 357 356 355 353 351 348 349 349 346 346 345 345 346 345 344 344 343 341 345 345 342 342 342 339 340 340
366 365 363 363 364 365 366 365 367 366 364 361 360 359 358 356 356 354 353 352 350 348 348 348 346 345 345 344 344 342 343 343 343 345 344 345 344 342 342 341 340 340
367 365 366 365 365 366 367 365 365 365 363 361 361 360 357 356 354 353 351 350 350 348 347 347 346 344 344 344 344 343 342 341 343 344 342 342 343 343 341 341 340 339
368 367 367 365 365 365 365 364 365 363 362 358 357 356 355 355 353 351 351 349 348 346 346 346 344 343 342 343 344 344 343 340 341 343 342 341 340 340 339 340 339 338
368 366 364 363 363 366 365 366 365 363 361 358 357 354 354 352 351 350 349 349 348 348 347 347 346 344 343 343 344 344 343 343 343 343 341 340 340 340 339 339 339 338
368 366 364 363 364 364 364 365 364 362 362 358 357 356 354 351 351 348 347 348 347 348 348 347 346 346 343 342 343 343 343 342 341 342 342 340 340 340 340 339 339 339
367 365 364 364 361 361 362 362 362 362 361 358 355 354 354 352 350 348 348 349 348 349 348 346 346 345 344 342 342 343 343 341 340 341 340 339 338 339 339 339 338 338
366 365 362 360 359 360 360 360 359 360 359 357 353 351 351 352 349 348 348 350 348 346 347 346 345 345 344 341 342 344 343 341 341 341 340 339 338 339 338 338 337 337
365 362 361 361 360 359 359 358 357 355 354 351 350 349 350 349 349 351 350 350 348 347 346 346 344 344 342 340 343 345 344 341 341 340 340 340 340 339 338 338 337 336
365 363 362 360 358 358 356 357 352 350 349 348 347 345 345 346 347 349 348 348 349 346 346 346 345 343 342 343 343 344 343 342 340 339 338 339 340 339 339 339 338 337
364 364 361 358 358 359 355 349 346 345 345 344 345 343 343 343 345 346 346 348 348 346 345 345 344 345 346 347 345 344 344 343 340 338 336 337 338 338 338 338 337 337
364 365 362 360 358 353 346 343 344 343 343 344 344 341 342 342 341 344 347 347 347 346 345 345 346 347 348 348 347 346 344 343 342 339 336 337 339 339 338 337 337 336
366 362 359 359 354 351 345 342 342 342 342 342 343 342 342 342 343 345 345 345 347 346 346 346 347 345 345 346 346 346 345 343 341 340 339 337 337 337 338 338 339 337
362 360 359 357 353 349 345 340 339 341 342 342 345 345 345 343 343 344 344 343 344 345 345 344 341 341 338 333 338 345 345 344 343 342 340 337 337 338 338 337 338 338
362 359 358 355 352 351 350 347 343 344 345 345 346 346 345 344 343 344 342 342 343 342 342 343 342 339 330 328 328 330 340 342 341 341 341 338 338 338 338 337 338 340
361 359 357 352 350 350 352 351 349 347 347 347 345 346 347 346 344 344 343 343 341 340 337 340 342 329 326 326 327 326 329 339 340 340 339 337 337 336 337 338 339 338
362 359 357 353 348 349 350 350 348 347 347 347 346 347 346 344 344 343 343 343 340 339 338 340 342 328 325 325 325 325 326 330 338 340 339 337 337 338 336 337 342 343
361 358 355 353 350 350 349 349 348 347 348 348 347 347 345 342 341 342 342 343 343 344 344 343 342 327 323 322 322 323 324 327 338 339 340 339 338 338 337 341 344 345
361 359 356 354 351 350 349 348 348 349 349 348 346 345 344 342 342 342 342 344 343 344 342 339 337 325 321 321 320 319 321 326 333 335 335 337 339 342 341 342 343 343
360 359 357 355 352 350 348 347 348 349 347 345 346 345 345 343 344 343 340 342 343 342 338 332 332 324 321 320 318 318 321 329 330 330 332 335 338 340 343 343 342 339
360 359 357 355 353 350 347 347 347 347 347 348 345 345 344 343 343 341 342 341 340 337 332 330 331 328 319 317 316 317 322 331 332 333 336 336 336 340 341 341 340 340
361 360 357 355 353 351 349 346 347 346 346 345 342 342 341 340 341 339 339 339 337 332 330 332 333 330 317 315 316 317 324 334 335 335 335 334 337 337 339 343 340 337
361 360 356 355 352 351 351 349 348 347 347 345 342 339 336 335 334 335 336 336 334 336 333 333 332 329 317 318 317 316 326 334 334 333 332 334 336 335 337 336 338 336
358 357 355 354 352 352 351 349 349 346 343 341 339 337 332 330 330 328 328 330 332 336 338 339 338 341 330 315 314 312 319 335 334 332 331 332 334 334 330 336 338 338
Wind_Speed
12 13 13 13 12 11 11 11 10 11 10 9 8 8 8 9 8 8 9 8 8 8 7 7 7 6 6 6 6 6 5 6 6 5 6 5 5 6 5 5 5 4
15 15 12 12 11 11 10 11 11 10 9 9 8 8 8 8 8 8 9 9 9 9 8 8 7 7 7 7 7 7 6 6 7 5 5 6 6 6 7 7 6 6
15 16 16 15 13 13 13 12 11 10 9 9 8 7 7 7 8 8 8 8 8 8 8 8 8 8 8 7 7 7 7 7 6 6 6 6 6 6 6 7 7 7
16 16 15 15 13 12 12 11 9 9 9 8 9 8 7 7 8 9 9 9 8 8 8 9 8 8 8 8 8 7 7 6 6 6 6 5 6 6 6 6 7 6
17 17 14 12 13 13 12 12 11 9 9 8 8 8 8 8 8 8 9 9 9 9 9 9 9 8 8 8 8 7 6 6 7 6 6 7 6 6 6 6 7 7
16 16 13 13 14 13 13 12 11 10 10 9 9 9 8 9 9 9 9 10 10 10 10 10 10 9 9 8 8 7 6 6 6 7 7 7 7 6 6 6 6 7
15 14 15 15 15 13 14 11 10 10 10 10 9 9 10 11 11 11 11 11 11 10 10 9 9 9 8 8 8 8 7 6 7 7 8 8 7 7 7 7 7 7
15 15 15 14 14 15 16 12 11 11 11 11 11 11 10 11 10 10 11 12 11 10 9 9 9 9 9 8 8 8 8 7 7 8 8 8 7 7 7 6 6 8
15 14 13 14 16 16 15 13 13 13 12 12 10 9 10 10 10 11 11 11 10 9 10 10 9 9 9 8 8 9 8 7 7 7 8 8 8 8 7 7 8 7
15 15 17 18 19 17 16 15 13 11 10 9 8 7 8 9 9 10 10 11 11 12 12 11 10 9 8 9 9 8 7 7 7 8 8 8 8 8 7 7 8 8
18 17 17 18 18 16 16 14 11 8 8 8 8 9 9 9 8 9 10 11 11 12 11 11 10 9 9 10 8 7 7 7 8 8 8 9 8 8 8 8 8 8
19 17 18 19 18 14 10 6 4 6 8 9 11 13 12 12 14 13 12 13 13 13 11 11 10 10 10 9 8 7 7 7 8 9 9 9 9 8 8 8 8 9
17 16 15 15 12 7 10 11 11 11 11 12 11 13 14 13 14 13 13 13 14 13 13 12 10 8 7 7 7 7 7 7 9 9 9 8 8 9 9 9 9 9
15 12 10 10 11 13 14 12 9 11 12 14 14 16 17 18 17 16 14 13 12 12 12 10 10 9 7 7 7 7 7 7 8 8 9 9 9 9 10 9 10 10
11 11 11 11 13 11 12 9 12 16 18 18 16 17 14 13 12 13 12 12 11 11 11 10 7 7 7 7 7 7 6 7 8 9 10 11 11 10 10 10 10 10
11 11 13 13 14 14 15 17 18 17 15 13 12 13 10 11 13 14 14 14 13 13 13 11 9 8 9 12 7 5 5 6 7 9 12 12 11 11 11 11 11 10
11 12 14 13 14 14 14 15 15 11 11 10 11 11 12 13 13 15 16 16 16 15 14 11 8 8 14 11 10 6 3 5 9 10 12 12 12 11 11 10 10 10
11 13 14 15 15 16 15 15 14 14 13 12 11 12 11 11 13 14 15 16 15 16 14 11 9 11 12 11 10 10 9 6 8 10 11 12 11 11 10 9 10 10
13 14 15 17 17 17 15 13 14 15 15 13 13 11 10 12 13 13 12 12 12 13 13 12 9 11 13 13 12 12 9 8 7 10 12 12 12 11 12 11 9 9
13 14 15 17 17 16 15 15 16 17 16 14 11 11 12 13 14 15 13 13 12 11 9 9 9 11 12 12 11 9 9 8 6 9 10 12 12 11 11 10 9 8
13 13 14 16 16 17 15 15 16 16 15 13 11 12 13 14 14 13 13 11 10 9 9 8 7 9 12 11 9 8 7 5 4 6 9 10 10 10 11 10 9 4
13 13 13 14 15 15 17 16 16 15 14 11 10 11 10 10 10 10 13 11 10 10 9 9 8 8 9 9 8 8 7 3 5 6 8 10 11 12 8 8 4 5
12 12 13 14 14 15 15 16 16 14 11 9 10 11 12 13 15 14 12 11 11 10 10 9 10 12 13 10 9 7 5 4 5 6 7 10 10 8 10 9 5 6
11 11 12 12 13 14 14 14 13 11 11 9 11 7 8 9 8 8 9 10 10 10 11 11 10 10 13 11 10 10 7 4 3 3 6 8 8 8 9 3 4 7
10 10 11 11 12 11 10 11 8 7 6 6 6 6 7 7 7 6 6 7 8 9 10 11 9 9 13 9 8 10 6 3 3 4 6 8 7 8 5 7 5 7
8 9 9 9 8 8 7 7 6 7 9 9 11 9 8 8 8 8 8 7 8 8 7 8 9 5 8 12 12 13 12 7 6 5 6 7 6 6 8 7 8 6
Wind_Direction
214 221 224 224 225 225 223 219 217 218 219 222 224 221 221 216 199 193 198 202 206 212 203 204 208 211 210 208 206 210 215 209 221 206 216 225 230 238 237 241 241 245
212 219 221 223 223 222 222 217 214 216 217 221 225 224 220 199 189 189 194 196 203 205 198 200 206 207 208 208 202 209 212 212 220 210 219 225 239 243 244 247 254 256
210 216 219 221 222 221 222 216 211 215 219 221 220 199 193 189 189 188 192 200 200 201 197 203 204 202 206 213 206 210 210 213 219 223 219 234 245 248 257 257 249 245
209 214 216 220 222 222 219 215 200 205 213 215 211 191 192 188 190 193 193 197 201 203 201 204 206 200 203 208 208 213 213 214 219 229 230 231 240 254 258 262 268 274
208 213 210 215 220 220 216 213 196 190 196 199 195 188 187 188 190 195 198 196 202 203 203 204 204 205 200 205 205 213 213 216 218 227 236 238 238 240 250 254 257 261
206 208 204 216 221 217 214 206 190 185 183 175 184 184 187 186 190 199 202 203 202 206 204 204 203 205 202 204 206 213 218 223 224 219 230 237 242 240 243 244 248 249
197 198 204 214 220 214 215 196 182 177 181 180 179 185 187 188 190 193 200 206 209 205 207 205 206 209 206 204 207 213 219 233 252 245 240 243 237 239 239 242 243 248
195 193 200 205 208 213 213 191 179 180 178 177 184 189 184 188 196 196 197 200 205 207 212 212 209 215 216 210 209 213 219 226 237 239 244 244 246 242 236 240 243 248
197 195 191 201 212 216 204 190 186 182 176 178 187 188 188 195 197 203 202 200 198 193 207 214 212 217 221 222 215 217 224 230 237 241 239 241 239 240 242 242 248 253
196 195 199 202 207 206 201 198 193 183 168 171 177 189 187 191 198 204 203 200 194 204 197 202 203 211 220 224 221 220 224 231 241 243 241 240 244 250 248 247 252 255
198 197 195 198 202 204 201 197 188 170 151 155 171 193 198 189 188 198 196 197 199 205 203 203 197 197 214 224 221 220 223 230 235 239 241 241 242 245 250 258 261 260
199 195 194 197 201 202 191 156 144 128 143 165 183 191 190 188 190 194 194 200 201 200 198 203 199 198 202 210 217 216 220 231 236 239 242 244 243 245 248 250 252 253
198 194 191 189 183 147 116 136 155 170 173 183 185 193 194 195 198 189 191 197 195 193 190 190 197 193 186 190 206 219 224 230 237 240 243 247 247 248 252 251 250 248
200 188 173 175 154 142 134 128 169 181 190 192 188 195 197 194 194 185 183 185 187 186 183 187 186 174 171 185 193 204 218 228 238 244 249 248 249 251 253 257 253 248
198 191 182 159 129 127 117 159 197 196 200 198 193 197 197 196 186 176 177 179 179 178 178 179 169 166 176 179 191 197 208 230 240 248 251 251 252 255 253 253 255 257
190 153 161 156 151 151 159 188 208 207 209 201 196 194 183 184 187 179 175 180 182 183 187 182 185 178 179 183 177 171 200 234 250 255 259 257 255 255 256 254 256 257
167 159 159 169 159 169 185 201 209 213 213 212 202 196 192 189 186 181 186 184 184 186 189 187 183 184 172 164 184 176 185 257 270 271 267 262 255 251 253 256 260 261
187 164 166 172 168 182 197 201 209 214 213 210 207 201 194 188 191 189 187 186 188 190 188 185 188 167 172 172 163 175 193 224 257 264 267 267 261 255 253 258 257 259
189 166 173 179 182 189 199 202 209 214 214 208 203 196 186 190 194 190 189 187 186 186 186 183 187 168 171 178 189 191 184 194 236 258 265 264 263 256 257 255 256 254
189 168 172 181 193 194 195 203 211 217 217 210 200 188 190 195 198 194 186 185 180 177 172 174 174 165 175 190 200 185 182 198 240 257 261 258 256 258 260 259 254 248
191 176 179 188 193 200 198 204 213 220 220 212 202 194 193 193 194 190 190 176 162 165 172 168 174 159 194 196 184 179 196 209 232 252 265 272 267 260 254 256 260 285
193 180 190 194 195 200 208 209 212 218 215 203 197 196 197 192 192 186 181 164 164 164 159 168 181 175 206 185 174 181 169 172 202 227 252 261 263 257 257 258 222 212
193 180 191 196 199 203 208 215 220 218 207 191 191 189 191 194 193 179 158 157 164 164 166 179 195 182 182 181 181 176 148 197 204 230 245 258 265 282 274 248 218 210
184 182 197 202 205 207 211 215 219 221 220 207 210 187 195 192 165 163 160 158 160 170 183 193 202 168 176 183 185 174 166 177 202 241 270 277 277 272 264 290 274 256
187 184 198 202 210 211 212 210 196 176 181 157 155 126 125 127 133 128 143 168 173 182 184 199 204 178 180 178 131 110 130 176 191 235 261 275 285 271 259 241 228 208
181 192 203 203 202 199 194 203 170 185 197 182 190 173 146 143 148 154 168 187 196 197 186 201 207 167 135 138 152 140 154 174 200 207 225 241 256 278 285 267 253 229